Powrót do katalogu

THORAD AGENA D DEB

AktywnySSO
NORAD 4773·DEBRIS·🇺🇸 United States

Wystrzelony Apr 8, 1970 z Vandenberg Space Force Base

Loading…

Następne Przeloty (najbliższe 24 godziny)

TLE

ŚwieżeSource: Space-Track

Epoka: Sep 14, 2026, 08:59 UTC

1 04773U 70025DT  26257.37463142  .00000118  00000-0  23030-3 0  9998
2 04773 100.0194 310.6994 0030999  34.5815  25.9372 13.57133040780196

Śledź THORAD AGENA D DEB w czasie rzeczywistym z AllMySat

Download on the App Store